ARIANE 5 DEB (SYLDA), 28887

Orbit data source: Space-Track

ARIANE 5 DEB (SYLDA), 28887 is space debris in HEO originally from a launch on Thu, 13 Oct 2005 UTC launched from the French Guiana (FRGUI). Debris objects in space refer to the collection of defunct objects orbiting the Earth. Examples of debris include non-operational satellites, rocket bodies, and fragments generated from explosions, collisions, or faulty payload assembly.

Loading next visibility...
Identifier
28887, 2005-041D
Orbit
HEO
Country
Flag of FRFR
Related business
Manufacturer
EADS/Bremen
Mission
Spacecraft
Bus & Motor
SYLDA 5, Unknown motor
Mass
440 kg wet, 440 kg dry
Launch date (UTC)
2005-10-13 (20 years ago)
Launch vehicle
Unknown
Launch site
French Guiana (FRGUI)
Object type
Payload
Rocket body
Debris
Shape & HBR
Cyl, 2.9 m
Radar Cross Section
28.451 m², Large (>1 m²)

Expand to show TLE details & history
Last TLE update: 15 hours ago

TLE from 15 hours ago
0 ARIANE 5 DEB (SYLDA)
1 28887U 05041D   25346.74660387  .00000144  00000-0  21846-2 0  9996
2 28887   7.1164 232.2634 7153189 326.9809   4.1827  2.27491611166757
Epoch: 2025-12-12T17:55Z
TLE epoch observation values (Epoch: 2025-12-12T17:55:06.574Z)
Latitude
-0.00002°
Longitude
-118.05879°
Altitude
1,086.786 km
Speed
9.511 km/s
True Right ascension
15h 29m 36s
True Declination
0° 00' 00"
Sunlit
Object was in daylight at epoch
Visualization orbit readout
Latitude
Unknown
Longitude
Unknown
Altitude
Unknown
Speed
Unknown
Apparent Right ascension
Unknown
Apparent Declination
Unknown
Sunlit
N/A
Visualization observer readout
Local Sidereal Time
07:31:21
Azimuth
Unknown
Elevation
Unknown
Doppler factor
Unknown
Orbital elements
Apogee altitude
35,520.049 km
Perigee altitude
575.451 km
Semi-major axis
24,425.887 km
Eccentricity
0.71532
Inclination
7.1164°
RAAN
232.2634°
Arg. of periapsis
326.9809°
True anomaly
34.27312°
Mean anomaly
4.1827°
Eccentric anomaly
14.31921°
Mean motion
0.56855 °/min
Orbital period
633.19 mins
BSTAR
0.0021846
Loading maneuver chart data...
Computing Atmospheric mass density...
Loading historical data...
Loading historical data...
Loading historical data...
Loading historical data...
Loading historical data...
Loading historical data...
Loading historical data...
Other satellites on launch #41 in the year 2005 (2005-10-13 UTC)

Documentation

Showing up to 5 results
|